CMP116 MPTO-MROC

Flight info

Callsign CMP116
Flight time 0h 57m
Altitude 36000
Route PUDOS DCT ISEBA CUARE4I
Aircraft B738/M-SDE2E3FGHIRWXY/LB1

Departure

Time 2026-05-04 20:33
Airport Tocumen International Airport (MPTO)

Arrival

Time 2026-05-04 21:30
Airport Juan Santamaría International Airport (MROC)
Time Latitude Longitude Altitude Speed Heading
2026-05-04 20:03 9.06872 -79.38525 29 ft 0 kts 177°
2026-05-04 20:25 9.06874 -79.38525 29 ft 2 kts 177°
2026-05-04 20:26 9.06898 -79.38522 29 ft 4 kts 208°
2026-05-04 20:26 9.06916 -79.38504 29 ft 4 kts 246°
2026-05-04 20:26 9.06922 -79.38479 29 ft 4 kts 271°
2026-05-04 20:26 9.06918 -79.38456 29 ft 1 kts 298°
2026-05-04 20:27 9.06918 -79.38455 29 ft 0 kts 298°
2026-05-04 20:28 9.06950 -79.38466 29 ft 10 kts 19°
2026-05-04 20:29 9.07023 -79.38428 29 ft 14 kts 26°
2026-05-04 20:29 9.07112 -79.38387 29 ft 9 kts 359°
2026-05-04 20:29 9.07149 -79.38410 30 ft 14 kts 311°
2026-05-04 20:29 9.07205 -79.38502 31 ft 15 kts 300°
2026-05-04 20:30 9.07239 -79.38567 33 ft 9 kts 295°
2026-05-04 20:30 9.07259 -79.38624 37 ft 6 kts 289°
2026-05-04 20:30 9.07265 -79.38640 37 ft 0 kts 289°
2026-05-04 20:30 9.07266 -79.38644 38 ft 4 kts 288°
2026-05-04 20:31 9.07287 -79.38696 45 ft 9 kts 306°
2026-05-04 20:31 9.07341 -79.38693 46 ft 8 kts 28°
2026-05-04 20:31 9.07359 -79.38683 45 ft 1 kts 30°
2026-05-04 20:31 9.07367 -79.38678 46 ft 1 kts 30°
2026-05-04 20:32 9.07368 -79.38678 46 ft 0 kts 30°
2026-05-04 20:32 9.07375 -79.38673 46 ft 11 kts 31°
2026-05-04 20:32 9.07681 -79.38486 48 ft 92 kts 31°
2026-05-04 20:33 9.08448 -79.38030 50 ft 160 kts 30°
2026-05-04 20:33 9.09501 -79.37393 509 ft 186 kts 31°
2026-05-04 20:33 9.10581 -79.36708 1500 ft 180 kts 31°
2026-05-04 20:33 9.11625 -79.36028 2558 ft 176 kts 32°
2026-05-04 20:34 9.12650 -79.35415 3559 ft 168 kts 20°
2026-05-04 20:34 9.13768 -79.35313 4517 ft 164 kts 351°
2026-05-04 20:34 9.14854 -79.35814 5062 ft 183 kts 323°
2026-05-04 20:34 9.15688 -79.36826 5711 ft 194 kts 300°
2026-05-04 20:35 9.16132 -79.38123 6530 ft 194 kts 281°
2026-05-04 20:35 9.16204 -79.39485 7278 ft 199 kts 268°
2026-05-04 20:35 9.16173 -79.40966 7564 ft 228 kts 270°
2026-05-04 20:35 9.16102 -79.42647 7754 ft 251 kts 266°
2026-05-04 20:36 9.15986 -79.44487 8011 ft 270 kts 266°
2026-05-04 20:36 9.15861 -79.46437 8331 ft 288 kts 266°
2026-05-04 20:36 9.15727 -79.48523 8809 ft 303 kts 266°
2026-05-04 20:36 9.15591 -79.50648 9714 ft 304 kts 266°
2026-05-04 20:37 9.15453 -79.52803 10399 ft 312 kts 266°
2026-05-04 20:37 9.15307 -79.55081 10645 ft 338 kts 266°
2026-05-04 20:37 9.15152 -79.57520 11016 ft 354 kts 266°
2026-05-04 20:37 9.14992 -79.60028 11662 ft 359 kts 266°
2026-05-04 20:38 9.14829 -79.62520 12401 ft 361 kts 266°
2026-05-04 20:38 9.14660 -79.65072 13155 ft 367 kts 266°
2026-05-04 20:38 9.14489 -79.67664 13877 ft 370 kts 266°
2026-05-04 20:38 9.14244 -79.70267 14489 ft 374 kts 257°
2026-05-04 20:39 9.13434 -79.72776 15100 ft 377 kts 248°
2026-05-04 20:39 9.12399 -79.75220 15716 ft 380 kts 245°
2026-05-04 20:39 9.11359 -79.77692 16317 ft 384 kts 249°
2026-05-04 20:39 9.10524 -79.80265 16905 ft 387 kts 255°
2026-05-04 20:40 9.09951 -79.82904 17509 ft 391 kts 260°
2026-05-04 20:40 9.09590 -79.85638 18107 ft 394 kts 264°
2026-05-04 20:40 9.09383 -79.88417 18601 ft 398 kts 267°
2026-05-04 20:40 9.09280 -79.91223 19211 ft 398 kts 269°
2026-05-04 20:41 9.09233 -79.94017 19896 ft 398 kts 269°
2026-05-04 20:41 9.09211 -79.96830 20400 ft 402 kts 270°
2026-05-04 20:41 9.09200 -79.99671 20901 ft 404 kts 270°
2026-05-04 20:41 9.09189 -80.02516 21455 ft 405 kts 270°
2026-05-04 20:42 9.09177 -80.05373 21996 ft 407 kts 270°
2026-05-04 20:42 9.09163 -80.08234 22508 ft 408 kts 270°
2026-05-04 20:42 9.09146 -80.11075 22993 ft 410 kts 270°
2026-05-04 20:42 9.09128 -80.13967 23459 ft 412 kts 270°
2026-05-04 20:43 9.09109 -80.16877 23848 ft 414 kts 270°
2026-05-04 20:43 9.09089 -80.19803 24205 ft 417 kts 270°
2026-05-04 20:43 9.09068 -80.22748 24554 ft 420 kts 270°
2026-05-04 20:43 9.09046 -80.25708 24897 ft 423 kts 271°
2026-05-04 20:44 9.09025 -80.28690 25250 ft 425 kts 270°
2026-05-04 20:44 9.09004 -80.31694 25595 ft 428 kts 270°
2026-05-04 20:44 9.08983 -80.34705 25942 ft 430 kts 270°
2026-05-04 20:44 9.08960 -80.37698 26269 ft 433 kts 270°
2026-05-04 20:45 9.08937 -80.40752 26596 ft 435 kts 270°
2026-05-04 20:45 9.08914 -80.43817 26917 ft 438 kts 270°
2026-05-04 20:45 9.08890 -80.46914 27236 ft 440 kts 270°
2026-05-04 20:45 9.08866 -80.50015 27562 ft 443 kts 270°
2026-05-04 20:46 9.08842 -80.53140 27862 ft 445 kts 270°
2026-05-04 20:46 9.08817 -80.56276 28174 ft 447 kts 270°
2026-05-04 20:46 9.08792 -80.59426 28473 ft 449 kts 270°
2026-05-04 20:46 9.08767 -80.62553 28771 ft 451 kts 270°
2026-05-04 20:47 9.08741 -80.65727 29140 ft 451 kts 270°
2026-05-04 20:47 9.08715 -80.68889 29579 ft 450 kts 270°
2026-05-04 20:47 9.08688 -80.72053 30023 ft 448 kts 270°
2026-05-04 20:47 9.08661 -80.75205 30352 ft 448 kts 270°
2026-05-04 20:48 9.08635 -80.78360 30650 ft 449 kts 270°
2026-05-04 20:48 9.08608 -80.81525 30967 ft 450 kts 270°
2026-05-04 20:48 9.08581 -80.84640 31318 ft 449 kts 270°
2026-05-04 20:48 9.08553 -80.87794 31666 ft 449 kts 270°
2026-05-04 20:49 9.08525 -80.90955 31884 ft 450 kts 270°
2026-05-04 20:49 9.08497 -80.94125 31877 ft 452 kts 270°
2026-05-04 20:49 9.08440 -81.00461 31884 ft 449 kts 270°
2026-05-04 20:50 9.08792 -81.06730 31874 ft 446 kts 283°
2026-05-04 20:50 9.10298 -81.12755 31878 ft 445 kts 285°
2026-05-04 20:51 9.11903 -81.18796 31883 ft 445 kts 285°
2026-05-04 20:51 9.13476 -81.24852 31887 ft 445 kts 285°
2026-05-04 20:52 9.15023 -81.30927 31888 ft 446 kts 285°
2026-05-04 20:52 9.16551 -81.36976 31885 ft 447 kts 285°
2026-05-04 20:53 9.18089 -81.43074 31885 ft 448 kts 285°
2026-05-04 20:53 9.19630 -81.49183 31889 ft 448 kts 285°
2026-05-04 20:54 9.21171 -81.55293 31883 ft 448 kts 285°
2026-05-04 20:54 9.22702 -81.61366 31883 ft 448 kts 285°
2026-05-04 20:55 9.24240 -81.67474 31883 ft 448 kts 284°
2026-05-04 20:55 9.25775 -81.73574 31886 ft 447 kts 284°
2026-05-04 20:56 9.27306 -81.79665 31883 ft 446 kts 284°
2026-05-04 20:56 9.28822 -81.85699 31881 ft 445 kts 284°
2026-05-04 20:57 9.30343 -81.91758 31884 ft 444 kts 284°
2026-05-04 20:57 9.31863 -81.97813 31886 ft 443 kts 284°
2026-05-04 20:58 9.33378 -82.03856 31886 ft 443 kts 284°
2026-05-04 20:58 9.34881 -82.09857 31879 ft 443 kts 284°
2026-05-04 20:59 9.36391 -82.15893 31882 ft 442 kts 284°
2026-05-04 20:59 9.37903 -82.21936 31882 ft 443 kts 284°
2026-05-04 21:00 9.39413 -82.27979 31889 ft 443 kts 284°
2026-05-04 21:00 9.40913 -82.33987 31885 ft 443 kts 284°
2026-05-04 21:01 9.42423 -82.40036 31899 ft 443 kts 284°
2026-05-04 21:01 9.43933 -82.46095 31905 ft 444 kts 284°
2026-05-04 21:02 9.45443 -82.52155 31912 ft 444 kts 284°
2026-05-04 21:02 9.46943 -82.58180 31915 ft 444 kts 284°
2026-05-04 21:03 9.48451 -82.64245 31922 ft 444 kts 284°
2026-05-04 21:03 9.49960 -82.70315 31918 ft 444 kts 284°
2026-05-04 21:04 9.51468 -82.76387 31928 ft 445 kts 284°
2026-05-04 21:04 9.52966 -82.82423 31930 ft 445 kts 284°
2026-05-04 21:05 9.54499 -82.88436 31930 ft 437 kts 286°
2026-05-04 21:05 9.56332 -82.94290 31941 ft 436 kts 288°
2026-05-04 21:06 9.57283 -82.97184 31840 ft 429 kts 288°
2026-05-04 21:06 9.58217 -83.00037 31423 ft 425 kts 288°
2026-05-04 21:06 9.59128 -83.02845 30890 ft 426 kts 288°
2026-05-04 21:06 9.60047 -83.05705 30371 ft 426 kts 288°
2026-05-04 21:07 9.60950 -83.08533 29872 ft 418 kts 288°
2026-05-04 21:07 9.61833 -83.11312 29165 ft 412 kts 288°
2026-05-04 21:07 9.62708 -83.14068 28415 ft 408 kts 288°
2026-05-04 21:07 9.63571 -83.16791 27710 ft 404 kts 288°
2026-05-04 21:08 9.64426 -83.19488 27050 ft 399 kts 288°
2026-05-04 21:08 9.65270 -83.22151 26416 ft 394 kts 288°
2026-05-04 21:08 9.65822 -83.23893 26008 ft 391 kts 288°
2026-05-04 21:08 9.66915 -83.27342 25188 ft 385 kts 288°
2026-05-04 21:09 9.67730 -83.29914 24578 ft 382 kts 288°
2026-05-04 21:09 9.68537 -83.32463 23977 ft 378 kts 288°
2026-05-04 21:09 9.69337 -83.34989 23355 ft 374 kts 288°
2026-05-04 21:09 9.70129 -83.37490 22675 ft 371 kts 288°
2026-05-04 21:10 9.70913 -83.39967 21976 ft 369 kts 288°
2026-05-04 21:10 9.71693 -83.42434 21298 ft 366 kts 288°
2026-05-04 21:10 9.72204 -83.44049 21021 ft 360 kts 288°
2026-05-04 21:10 9.73201 -83.47201 20462 ft 349 kts 288°
2026-05-04 21:11 9.73933 -83.49516 20081 ft 341 kts 288°
2026-05-04 21:11 9.74641 -83.51795 19647 ft 337 kts 285°
2026-05-04 21:11 9.75014 -83.54083 19481 ft 322 kts 274°
2026-05-04 21:11 9.74972 -83.56365 18851 ft 327 kts 266°
2026-05-04 21:12 9.74851 -83.57892 18465 ft 329 kts 265°
2026-05-04 21:12 9.74649 -83.60173 18234 ft 319 kts 265°
2026-05-04 21:12 9.74413 -83.63050 18049 ft 300 kts 266°
2026-05-04 21:12 9.74258 -83.65142 17580 ft 299 kts 266°
2026-05-04 21:13 9.74107 -83.67247 17131 ft 299 kts 266°
2026-05-04 21:13 9.73958 -83.69345 16776 ft 298 kts 266°
2026-05-04 21:13 9.73807 -83.71453 16416 ft 301 kts 266°
2026-05-04 21:13 9.73706 -83.72859 16196 ft 301 kts 266°
2026-05-04 21:14 9.73556 -83.74955 15876 ft 295 kts 266°
2026-05-04 21:14 9.73409 -83.77008 15582 ft 289 kts 266°
2026-05-04 21:14 9.73219 -83.79667 15186 ft 282 kts 266°
2026-05-04 21:14 9.73077 -83.81633 14948 ft 275 kts 265°
2026-05-04 21:15 9.72940 -83.83540 14827 ft 268 kts 265°
2026-05-04 21:15 9.72802 -83.85430 14632 ft 273 kts 265°
2026-05-04 21:15 9.72704 -83.86713 14454 ft 278 kts 265°
2026-05-04 21:15 9.72549 -83.88735 14169 ft 302 kts 265°
2026-05-04 21:16 9.72375 -83.90978 13820 ft 331 kts 265°
2026-05-04 21:16 9.72256 -83.92527 13529 ft 335 kts 265°
2026-05-04 21:16 9.72216 -83.93038 13441 ft 334 kts 265°
2026-05-04 21:16 9.71989 -83.95981 12978 ft 332 kts 265°
2026-05-04 21:17 9.71868 -83.97549 12741 ft 330 kts 265°
2026-05-04 21:17 9.71692 -83.99831 12394 ft 328 kts 265°
2026-05-04 21:17 9.71515 -84.02127 12052 ft 326 kts 265°
2026-05-04 21:17 9.71337 -84.04416 11702 ft 325 kts 265°
2026-05-04 21:18 9.71161 -84.06693 11348 ft 324 kts 265°
2026-05-04 21:18 9.70985 -84.08966 11016 ft 323 kts 265°
2026-05-04 21:18 9.70809 -84.11227 10663 ft 321 kts 265°
2026-05-04 21:18 9.70636 -84.13467 10351 ft 317 kts 266°
2026-05-04 21:19 9.70463 -84.15677 10147 ft 311 kts 265°
2026-05-04 21:19 9.70292 -84.17844 9967 ft 304 kts 266°
2026-05-04 21:19 9.70132 -84.19916 9799 ft 297 kts 265°
2026-05-04 21:19 9.69970 -84.21993 9569 ft 292 kts 266°
2026-05-04 21:20 9.69813 -84.24023 9358 ft 286 kts 266°
2026-05-04 21:20 9.69658 -84.26004 9187 ft 279 kts 266°
2026-05-04 21:20 9.69505 -84.27950 8998 ft 275 kts 266°
2026-05-04 21:20 9.69476 -84.29862 8809 ft 269 kts 282°
2026-05-04 21:21 9.70230 -84.31530 8684 ft 258 kts 312°
2026-05-04 21:21 9.71610 -84.32612 8539 ft 248 kts 338°
2026-05-04 21:21 9.73232 -84.32971 8445 ft 240 kts
2026-05-04 21:21 9.74855 -84.32666 8333 ft 237 kts 22°
2026-05-04 21:22 9.76242 -84.31791 8215 ft 235 kts 44°
2026-05-04 21:22 9.77394 -84.30616 8115 ft 235 kts 46°
2026-05-04 21:22 9.78527 -84.29412 7996 ft 236 kts 46°
2026-05-04 21:22 9.79662 -84.28201 7878 ft 238 kts 46°
2026-05-04 21:23 9.80801 -84.26987 7755 ft 237 kts 46°
2026-05-04 21:23 9.81931 -84.25784 7640 ft 234 kts 46°
2026-05-04 21:23 9.83035 -84.24610 7534 ft 233 kts 46°
2026-05-04 21:23 9.84151 -84.23426 7425 ft 232 kts 46°
2026-05-04 21:24 9.85271 -84.22237 7314 ft 233 kts 46°
2026-05-04 21:24 9.86395 -84.21046 7205 ft 235 kts 46°
2026-05-04 21:24 9.87525 -84.19847 7082 ft 236 kts 46°
2026-05-04 21:24 9.88655 -84.18650 6951 ft 233 kts 46°
2026-05-04 21:25 9.90128 -84.17088 6793 ft 230 kts 46°
2026-05-04 21:25 9.90873 -84.16300 6720 ft 228 kts 46°
2026-05-04 21:25 9.91935 -84.15174 6622 ft 213 kts 46°
2026-05-04 21:25 9.92907 -84.14143 6496 ft 197 kts 46°
2026-05-04 21:26 9.93813 -84.13183 6379 ft 180 kts 46°
2026-05-04 21:26 9.94638 -84.12289 6192 ft 168 kts 52°
2026-05-04 21:26 9.94972 -84.11222 6094 ft 159 kts 80°
2026-05-04 21:26 9.95540 -84.10298 5861 ft 158 kts 27°
2026-05-04 21:27 9.96596 -84.10072 5717 ft 158 kts
2026-05-04 21:27 9.97697 -84.10112 5518 ft 159 kts
2026-05-04 21:27 9.98789 -84.10069 5316 ft 157 kts 353°
2026-05-04 21:27 9.99802 -84.10440 5148 ft 159 kts 329°
2026-05-04 21:28 10.00649 -84.11161 4948 ft 159 kts 312°
2026-05-04 21:28 10.01284 -84.12067 4724 ft 156 kts 297°
2026-05-04 21:28 10.01658 -84.13086 4526 ft 154 kts 282°
2026-05-04 21:28 10.01732 -84.14172 4319 ft 155 kts 266°
2026-05-04 21:29 10.01510 -84.15254 4040 ft 158 kts 255°
2026-05-04 21:29 10.01129 -84.16301 3862 ft 157 kts 251°
2026-05-04 21:29 10.00739 -84.17332 3597 ft 157 kts 252°
2026-05-04 21:29 10.00349 -84.18357 3532 ft 159 kts 253°
2026-05-04 21:30 9.99958 -84.19388 3253 ft 156 kts 250°
2026-05-04 21:30 9.99578 -84.20372 3045 ft 140 kts 252°
2026-05-04 21:30 9.99290 -84.21154 3005 ft 88 kts 249°
2026-05-04 21:30 9.99152 -84.21524 2983 ft 25 kts 248°
2026-05-04 21:31 9.99171 -84.21708 2969 ft 11 kts 26°
2026-05-04 21:31 9.99197 -84.21657 2971 ft 12 kts 70°
2026-05-04 21:31 9.99235 -84.21555 2977 ft 17 kts 69°
2026-05-04 21:32 9.99278 -84.21438 2987 ft 18 kts 69°
2026-05-04 21:32 9.99323 -84.21322 2996 ft 17 kts 69°
2026-05-04 21:32 9.99378 -84.21175 3003 ft 29 kts 69°
2026-05-04 21:32 9.99461 -84.20953 3028 ft 34 kts 69°
2026-05-04 21:33 9.99537 -84.20748 3033 ft 30 kts 69°
2026-05-04 21:33 9.99603 -84.20574 3034 ft 13 kts 69°
2026-05-04 21:33 9.99626 -84.20525 3035 ft 3 kts 72°
2026-05-04 21:33 9.99631 -84.20509 3034 ft 2 kts 72°
2026-05-04 21:34 9.99633 -84.20503 3034 ft 0 kts 72°
2026-05-04 21:34 9.99658 -84.20484 3033 ft 6 kts
2026-05-04 21:34 9.99690 -84.20495 3033 ft 2 kts 338°
2026-05-04 21:34 9.99695 -84.20496 3033 ft 0 kts 339°